Location: G�nzburg
(48.4565°N, 10.3217°E)
Time: 21:57:29
(UTC+01:00)

ISS - Pass Details

Date: 04 January 2018
Orbit: 401 x 407 km, 51.6° (Epoch: 17 January)

Event Time Altitude Azimuth Distance (km) Brightness Sun altitude
Exits shadow 06:55:27 20° 292° (WNW) 1,007 -2.5 -11.8°
Maximum altitude 06:57:25 46° 358° (N) 560 -3.3 -11.5°
Drops below altitude 10° 07:00:36 10° 73° (ENE) 1,470 -0.2 -11.0°
Sets 07:02:45 0° 80° (E) 2,332 1.1 -10.7°
